Location: LDNL
(36.4545°S, 141.6685°E)
Time: 06:25:39
(UTC+10:00)

SR - Visible Passes

Search period start: 10 August 2022 00:00
Search period end: 20 August 2022 00:00
Orbit: 572 x 880 km, 66.7° (Epoch: 08 August)

Date Brightness Start Highest point End Pass type
(mag) Time Alt. Az. Time Alt. Az. Time Alt. Az.
11 Aug ? 06:41:49 10° S 06:45:17 22° SE 06:48:55 10° ENE visible
12 Aug ? 05:53:43 10° SSE 05:54:49 11° SE 05:55:54 10° ESE visible
13 Aug ? 06:42:53 10° SSW 06:47:07 43° ESE 06:51:37 10° NE visible
14 Aug ? 05:53:29 10° S 05:56:49 20° SE 06:00:17 10° ENE visible
15 Aug ? 06:44:20 10° SSW 06:48:49 89° ESE 06:53:37 10° NNE visible
16 Aug ? 05:54:28 10° S 05:58:39 39° ESE 06:03:06 10° NE visible
17 Aug ? 05:05:10 10° S 05:08:20 19° SE 05:11:37 10° E visible
17 Aug ? 06:46:10 10° SW 06:50:26 43° WNW 06:55:00 10° N visible
17 Aug ? 19:33:18 10° NNE 19:33:23 10° NNE 19:33:23 10° NNE visible
18 Aug ? 05:55:52 10° SSW 06:00:22 81° ESE 06:05:12 10° NNE visible
18 Aug ? 20:23:32 10° NNW 20:25:17 23° NNW 20:25:17 23° NNW visible
19 Aug ? 05:07:21 18° S 05:10:11 35° ESE 05:14:34 10° NE visible
19 Aug ? 19:33:47 10° N 19:37:43 39° NE 19:37:43 39° NE visible
19 Aug ? 21:17:05 10° W 21:17:10 10° W 21:17:10 10° W visible
